Weather Roundup
Issued by NWS

Home | Current Version | Previous Version | Text Only | Print | Product List | Glossary On
Versions: 1 2 3 4 5 6 7 8 9 10 11 12 13 14 15 16 17 18 19 20 21 22 23 24 25 26 27 28 29 30 31 32 33 34 35 36 37 38 39 40 41 42 43 44 45 46 47 48 49 50
000
NZUS93 KARX 021810
HRRWXR

CURRENT HOURLY OBSERVATIONS ACROSS
MUCH OF THE UPPER MISSISSIPPI VALLEY
NATIONAL WEATHER SERVICE LA CROSSE WI
100 PM CDT THU JUL 02 2015


...SOUTHEAST MINNESOTA...


CITY           SKY/WX    TMP DP  RH WIND       PRES   REMARKS
ROCHESTER      SUNNY     71  52  50 VRB6      30.03F
ROCHESTER/MAYO MOCLDY    71  51  49 N5        30.03F
WINONA         SUNNY     72  52  49 SE5       30.03F
AUSTIN           N/A    N/A N/A N/A MISG        N/A
ALBERT LEA     SUNNY     72  50  46 CALM      30.02F
DODGE CENTER   MOSUNNY   72  54  53 S5        30.03F
PRESTON        SUNNY     69  51  51 E6        30.04F
OWATONNA       SUNNY     72  52  49 E6        30.03S
FARIBAULT      SUNNY     73  54  49 SE5       30.03F
$$

...ELSEWHERE IN MINNESOTA...


CITY           SKY/WX    TMP DP  RH WIND       PRES   REMARKS
MINNEAPOLIS    MOSUNNY   73  53  49 E3        30.02F
INTNL FALLS    MOSUNNY   75  59  57 W9        29.96F
DULUTH         MOSUNNY   75  57  53 W5        30.01F
RED WING         N/A     75  50  41 E6        30.01F HAZE
REDWOOD FALLS  MOSUNNY   73  47  39 SE9       30.01S
MANKATO        SUNNY     72  52  49 S7        30.02F
WORTHINGTON    PTSUNNY   66  52  59 SE7       30.02F
FAIRMONT       MOSUNNY   70  48  46 SE12      30.01F
$$

...SOUTHWEST WISCONSIN...


CITY           SKY/WX    TMP DP  RH WIND       PRES   REMARKS
LA CROSSE      SUNNY     72  53  51 VRB3      30.02F
PRAIRIE DU CHI NOT AVBL
BOSCOBEL       MOSUNNY   71  52  50 NE6       30.02F
LONE ROCK      MOSUNNY   70  50  49 E9        30.03F
PLATTEVILLE    NOT AVBL
FORT MC COY    NOT AVBL
CAMP DOUGLAS   MOSUNNY   70  55  60 E8        30.03F
VIROQUA        NOT AVBL
WIS DELLS      SUNNY     67  47  48 NE9       30.05F
$$

...ELSEWHERE IN WISCONSIN...


CITY           SKY/WX    TMP DP  RH WIND       PRES   REMARKS
MILWAUKEE      MOSUNNY   63  50  62 NE9       30.05F
MADISON        SUNNY     68  47  46 NE6       30.03F
GREEN BAY      SUNNY     71  49  45 E10       30.06F
EAU CLAIRE     MOSUNNY   74  52  46 MISG      30.02F
BLACK RVR FLS  NOT AVBL
MEDFORD        NOT AVBL
WAUSAU         SUNNY     72  44  36 E6        30.04F
WIS RAPIDS     SUNNY     70  44  39 CALM      30.06F
MARSHFIELD     SUNNY     70  49  47 MISG      30.05F
RICE LAKE      NOT AVBL
$$

...NORTHEAST IOWA...


CITY           SKY/WX    TMP DP  RH WIND       PRES   REMARKS
DECORAH        NOT AVBL
MASON CITY     MOSUNNY   71  53  52 SE8       30.03F
CHARLES CITY   NOT AVBL
OELWEIN        NOT AVBL
$$

...ELSEWHERE IN IOWA...


CITY           SKY/WX    TMP DP  RH WIND       PRES   REMARKS
DES MOINES     CLOUDY    70  54  56 SE8       29.99R
IOWA CITY      MOSUNNY   71  50  47 E9        30.00F
FORT DODGE     PTSUNNY   68  55  64 E12       30.01F
$$

...NORTHERN ILLINOIS...


CITY           SKY/WX    TMP DP  RH WIND       PRES   REMARKS
CHICAGO-OHARE  MOSUNNY   68  53  58 NE13G20   30.00F
CHICAGO-MIDWAY MOSUNNY   70  57  63 NE15      29.99F
MOLINE         PTSUNNY   70  54  56 NE13      29.99S
ROCKFORD       PTSUNNY   70  54  56 NE9       30.02F
PEORIA         PTSUNNY   72  57  59 NE10      29.96F
$$

NOTE: "FAIR" INDICATES FEW OR NO CLOUDS BELOW 12,000 FEET WITH NO
SIGNIFICANT WEATHER AND/OR OBSTRUCTIONS TO VISIBILITY. WIND
SPEEDS ARE IN MILES-PER-HOUR.



USA.gov is the U.S. government's official web portal to all federal, state and local government web resources and services.